Weather History for Hyannis, MA

Change the Weather History Date:

Saturday, May 10, 2014

  Actual Average Record
Temperature  
Mean Temperature 60 °F -  
Max Temperature 66 °F 61 °F 82 °F (1953)
Min Temperature 55 °F 45 °F 33 °F (1947)
Degree Days  
Heating Degree Days 4    
Growing Degree Days 10 (Base 50)    
Moisture  
Dew Point 55 °F    
Average Humidity 85    
Maximum Humidity 97    
Minimum Humidity 75    
Precipitation  
Precipitation 0.00 in - - ()
Sea Level Pressure  
Sea Level Pressure 29.90 in    
Wind  
Wind Speed 10 mph (SSW)    
Max Wind Speed 17 mph    
Max Gust Speed 26 mph    
Visibility 7 miles    
Events Fog , Rain    
Averages and records for this station are not official NWS values.
T = Trace of Precipitation, MM = Missing Value Source: NWS Daily Summary

Daily Weather History Graph

Daily Weather History Graph

Search for Another Location

Airport:

Trip Planner

Search our weather history database for the weather conditions in past years. The results will help you decide how hot, cold, wet, or windy it might be!

Date:

Astronomy

May. 10, 2014 Rise Set
Actual Time 5:26 AM EDT 7:48 PM EDT
Civil Twilight 4:55 AM EDT 8:20 PM EDT
Nautical Twilight 4:17 AM EDT 8:58 PM EDT
Astronomical Twilight 3:34 AM EDT 9:41 PM EDT
Moon 3:38 PM EDT (5/10) 3:02 AM EDT (5/10)
Length of Visible Light 15h 24m
Length of Day
14h 21m
Waxing Gibbous, 82% of the Moon is Illuminated
May 10
Waxing Gibbous
May 14
Full
May 21
Last Quarter
May 28
New
Jun 5
First Quarter

Hourly Weather History & Observations

Time (EDT) Temp. Dew Point Humidity Pressure Visibility Wind Dir Wind Speed Gust Speed Precip Events Conditions
12:56 AM 57.9 °F 51.1 °F 78% 30.09 in 10.0 mi South 9.2 mph 16.1 mph N/A   Overcast
1:48 AM 57.0 °F 51.1 °F 81% 30.08 in 10.0 mi SSE 6.9 mph - N/A   Overcast
1:56 AM 57.0 °F 51.1 °F 81% 30.07 in 10.0 mi SSE 8.1 mph - N/A   Overcast
2:38 AM 57.0 °F 51.1 °F 81% 30.03 in 10.0 mi South 9.2 mph 18.4 mph N/A   Overcast
2:56 AM 57.0 °F 51.1 °F 81% 30.03 in 10.0 mi South 8.1 mph - N/A   Overcast
3:56 AM 57.9 °F 52.0 °F 81% 29.99 in 10.0 mi SSE 10.4 mph 18.4 mph N/A   Overcast
4:56 AM 57.9 °F 53.1 °F 84% 29.97 in 10.0 mi South 8.1 mph - N/A   Overcast
5:56 AM 60.1 °F 55.9 °F 86% 29.96 in 10.0 mi South 15.0 mph 23.0 mph N/A   Overcast
6:41 AM 61.0 °F 57.0 °F 87% 29.94 in 9.0 mi South 11.5 mph 23.0 mph N/A   Overcast
6:56 AM 62.1 °F 57.9 °F 86% 29.94 in 9.0 mi South 12.7 mph 21.9 mph N/A   Overcast
7:38 AM 61.0 °F 57.9 °F 90% 29.93 in 7.0 mi South 10.4 mph 20.7 mph N/A   Overcast
7:56 AM 61.0 °F 57.9 °F 90% 29.93 in 6.0 mi South 11.5 mph 20.7 mph N/A   Overcast
8:33 AM 60.1 °F 57.9 °F 93% 29.92 in 4.0 mi South 8.1 mph - N/A   Overcast
8:49 AM 60.1 °F 57.9 °F 93% 29.91 in 1.8 mi South 12.7 mph - N/A   Overcast
8:56 AM 57.9 °F 57.0 °F 97% 29.92 in 0.8 mi SSW 9.2 mph - N/A   Overcast
9:13 AM 57.0 °F 55.9 °F 96% 29.90 in 0.2 mi SSW 10.4 mph - N/A Fog Fog
9:26 AM 59.0 °F 57.9 °F 96% 29.89 in 0.5 mi SSW 10.4 mph - 0.00 in Fog , Rain Light Rain
9:47 AM 59.0 °F 57.9 °F 96% 29.87 in 1.5 mi South 10.4 mph - 0.00 in   Overcast
9:52 AM 60.8 °F 57.2 °F 88% 29.87 in 3.0 mi SSW 13.8 mph - 0.00 in   Overcast
9:56 AM 60.1 °F 57.9 °F 93% 29.89 in 4.0 mi SSW 16.1 mph 23.0 mph 0.00 in   Overcast
10:46 AM 61.0 °F 55.9 °F 83% 29.86 in 8.0 mi SSW 16.1 mph 26.5 mph N/A   Scattered Clouds
10:56 AM 60.1 °F 55.9 °F 86% 29.86 in 7.0 mi SSW 17.3 mph 24.2 mph N/A   Scattered Clouds
11:56 AM 63.0 °F 55.0 °F 75% 29.87 in 8.0 mi SW 9.2 mph - 0.00 in   Mostly Cloudy
12:56 PM 62.1 °F 55.0 °F 78% 29.86 in 9.0 mi SSW 12.7 mph 20.7 mph N/A   Clear
1:56 PM 63.0 °F 57.0 °F 81% 29.84 in 9.0 mi SSW 11.5 mph 26.5 mph N/A   Clear
2:56 PM 63.0 °F 55.9 °F 78% 29.83 in 7.0 mi SSW 8.1 mph - N/A   Clear
3:56 PM 64.0 °F 57.0 °F 78% 29.82 in 7.0 mi SW 13.8 mph - N/A   Clear
4:56 PM 62.1 °F 55.9 °F 80% 29.82 in 7.0 mi SSW 11.5 mph - N/A   Clear
5:56 PM 61.0 °F 55.0 °F 81% 29.82 in 7.0 mi SSW 8.1 mph - N/A   Clear
6:56 PM 60.1 °F 55.0 °F 83% 29.81 in 5.0 mi SSW 9.2 mph - N/A   Haze
7:56 PM 61.0 °F 55.9 °F 83% 29.82 in 8.0 mi SSW 12.7 mph - N/A   Clear
8:56 PM 60.1 °F 55.9 °F 86% 29.83 in 8.0 mi SW 8.1 mph - N/A   Clear
9:56 PM 57.0 °F 53.1 °F 87% 29.83 in 7.0 mi South 8.1 mph - N/A   Partly Cloudy
10:56 PM 57.0 °F 53.1 °F 87% 29.83 in 7.0 mi SW 11.5 mph - N/A   Overcast
11:56 PM 55.9 °F 52.0 °F 87% 29.82 in 7.0 mi SW 15.0 mph - N/A   Partly Cloudy